Fortuna, CA

12:44 AM PDT on August 25, 2019 (GMT -0700)
Rohnerville

Weather History for KFOT - July, 2019

Change the Weather History Date:

Wednesday, July 17, 2019

  Actual Average (WUND) Record (WUND)
Temperature  
Mean Temperature 63 °F -  
Max Temperature 71 °F - - (-1)
Min Temperature 55 °F - - (-1)
Degree Days  
Heating Degree Days 2    
Growing Degree Days 13 (Base 50)    
Moisture  
Dew Point 57 °F    
Average Humidity 85    
Maximum Humidity 100    
Minimum Humidity 57    
Precipitation  
Precipitation 0.00 in - - ()
Sea Level Pressure  
Sea Level Pressure 30.02 in    
Wind  
Wind Speed 10 mph (WNW)    
Max Wind Speed 20 mph    
Max Gust Speed 26 mph    
Visibility 8 miles    
Events      
Averages and records for this station are not official NWS values.
T = Trace of Precipitation, MM = Missing Value Source: NWS Daily Summary

Daily Weather History Graph

Daily Weather History Graph

Search for Another Location

Airport or City:

Astronomy

Jul. 17, 2019 Rise Set
Actual Time 6:00 AM PDT 8:44 PM PDT
Civil Twilight 5:28 AM PDT 9:16 PM PDT
Nautical Twilight 4:47 AM PDT 9:56 PM PDT
Astronomical Twilight 4:01 AM PDT 10:42 PM PDT
Moon 9:37 PM PDT (7/17) 6:38 AM PDT (7/17)
Length of Visible Light 15h 48m
Length of Day
14h 44m
Full, 99% of the Moon is Illuminated
Jul 17
Full
Jul 24
Last Quarter
Jul 31
New
Aug 7
First Quarter
Aug 15
Full

Hourly Weather History & Observations

Time (PDT) Temp. Dew Point Humidity Pressure Visibility Wind Dir Wind Speed Gust Speed Precip Events Conditions
12:10 AM 57.2 °F 55.4 °F 94% 30.02 in 10.0 mi WNW 9.2 mph - N/A   Overcast
12:30 AM 57.2 °F 55.4 °F 94% 30.02 in 10.0 mi WNW 8.1 mph - N/A   Overcast
12:50 AM 57.2 °F 55.4 °F 94% 30.02 in 10.0 mi WNW 8.1 mph - N/A   Overcast
1:10 AM 59.0 °F 55.4 °F 88% 30.03 in 10.0 mi NW 8.1 mph - N/A   Overcast
1:30 AM 59.0 °F 55.4 °F 88% 30.03 in 10.0 mi NW 8.1 mph - N/A   Overcast
1:50 AM 59.0 °F 55.4 °F 88% 30.02 in 10.0 mi NNW 9.2 mph - N/A   Overcast
2:10 AM 59.0 °F 55.4 °F 88% 30.02 in 10.0 mi NNW 12.7 mph 16.1 mph N/A   Overcast
2:30 AM 57.2 °F 57.2 °F 100% 30.02 in 4.0 mi WNW 9.2 mph - N/A   Overcast
2:50 AM 57.2 °F 57.2 °F 100% 30.02 in 1.8 mi WNW 8.1 mph - N/A   Overcast
3:10 AM 57.2 °F 57.2 °F 100% 30.01 in 0.5 mi WNW 8.1 mph - N/A   Overcast
3:30 AM 57.2 °F 57.2 °F 100% 30.01 in 0.5 mi WNW 5.8 mph - N/A   Overcast
3:50 AM 57.2 °F 57.2 °F 100% 30.00 in 2.5 mi West 5.8 mph - N/A   Overcast
4:10 AM 57.2 °F 57.2 °F 100% 30.00 in 5.0 mi West 5.8 mph - N/A   Overcast
4:30 AM 57.2 °F 57.2 °F 100% 29.99 in 10.0 mi WNW 6.9 mph - N/A   Overcast
4:50 AM 57.2 °F 57.2 °F 100% 29.99 in 10.0 mi WNW 6.9 mph - N/A   Overcast
5:10 AM 57.2 °F 57.2 °F 100% 29.99 in 10.0 mi WNW 9.2 mph - N/A   Overcast
5:30 AM 57.2 °F 55.4 °F 94% 30.00 in 9.0 mi WNW 6.9 mph - N/A   Overcast
5:50 AM 55.4 °F 55.4 °F 100% 30.01 in 7.0 mi WNW 6.9 mph - N/A   Overcast
6:10 AM 55.4 °F 55.4 °F 100% 30.01 in 4.0 mi WNW 6.9 mph - N/A   Overcast
6:30 AM 55.4 °F 55.4 °F 100% 30.01 in 1.2 mi West 5.8 mph - N/A   Overcast
6:50 AM 55.4 °F 55.4 °F 100% 30.01 in 0.2 mi West 5.8 mph - N/A   Overcast
7:30 AM 57.2 °F 57.2 °F 100% 30.02 in 10.0 mi West 5.8 mph - N/A   Overcast
7:50 AM 57.2 °F 57.2 °F 100% 30.02 in 10.0 mi WNW 4.6 mph - N/A   Overcast
8:10 AM 57.2 °F 57.2 °F 100% 30.03 in 10.0 mi WNW 6.9 mph - N/A   Overcast
8:30 AM 57.2 °F 57.2 °F 100% 30.03 in 8.0 mi WNW 8.1 mph - N/A   Overcast
8:50 AM 57.2 °F 57.2 °F 100% 30.04 in 8.0 mi West 6.9 mph - N/A   Overcast
9:10 AM 59.0 °F 57.2 °F 94% 30.03 in 10.0 mi West 6.9 mph - N/A   Overcast
9:30 AM 59.0 °F 57.2 °F 94% 30.03 in 10.0 mi WNW 3.5 mph - N/A   Mostly Cloudy
9:50 AM 62.6 °F 57.2 °F 82% 30.02 in 10.0 mi West 5.8 mph - N/A   Mostly Cloudy
10:10 AM 64.4 °F 57.2 °F 77% 30.02 in 10.0 mi WNW 8.1 mph - N/A   Mostly Cloudy
10:30 AM 64.4 °F 57.2 °F 77% 30.02 in 10.0 mi West 8.1 mph - N/A   Mostly Cloudy
10:50 AM 68.0 °F 57.2 °F 68% 30.02 in 10.0 mi WNW 9.2 mph - N/A   Scattered Clouds
11:10 AM 68.0 °F 57.2 °F 68% 30.02 in 10.0 mi West 16.1 mph 19.6 mph N/A   Clear
11:30 AM 66.2 °F 57.2 °F 73% 30.02 in 10.0 mi West 17.3 mph 23.0 mph N/A   Partly Cloudy
11:50 AM 66.2 °F 57.2 °F 73% 30.03 in 10.0 mi West 15.0 mph 21.9 mph N/A   Partly Cloudy
12:10 PM 66.2 °F 57.2 °F 73% 30.03 in 10.0 mi West 16.1 mph 24.2 mph N/A   Partly Cloudy
12:30 PM 66.2 °F 57.2 °F 73% 30.04 in 10.0 mi West 15.0 mph - N/A   Scattered Clouds
12:50 PM 68.0 °F 55.4 °F 64% 30.03 in 10.0 mi West 13.8 mph 21.9 mph N/A   Partly Cloudy
1:10 PM 69.8 °F 55.4 °F 60% 30.03 in 10.0 mi West 17.3 mph 21.9 mph N/A   Partly Cloudy
1:30 PM 69.8 °F 55.4 °F 60% 30.03 in 10.0 mi WNW 16.1 mph 20.7 mph N/A   Clear
1:50 PM 71.6 °F 55.4 °F 57% 30.03 in 10.0 mi West 19.6 mph - N/A   Partly Cloudy
2:10 PM 71.6 °F 55.4 °F 57% 30.03 in 10.0 mi West 18.4 mph 26.5 mph N/A   Partly Cloudy
2:30 PM 71.6 °F 57.2 °F 60% 30.03 in 10.0 mi WNW 18.4 mph 23.0 mph N/A   Partly Cloudy
2:50 PM 71.6 °F 57.2 °F 60% 30.04 in 10.0 mi WNW 18.4 mph 23.0 mph N/A   Partly Cloudy
3:10 PM 71.6 °F 59.0 °F 64% 30.04 in 10.0 mi NW 16.1 mph 21.9 mph N/A   Clear
3:30 PM 69.8 °F 59.0 °F 68% 30.04 in 10.0 mi WNW 16.1 mph 23.0 mph N/A   Partly Cloudy
3:50 PM 71.6 °F 59.0 °F 64% 30.04 in 10.0 mi West 17.3 mph - N/A   Partly Cloudy
4:10 PM 71.6 °F 59.0 °F 64% 30.04 in 10.0 mi NW 15.0 mph 20.7 mph N/A   Partly Cloudy
4:30 PM 69.8 °F 59.0 °F 68% 30.03 in 10.0 mi WNW 17.3 mph - N/A   Partly Cloudy
4:50 PM 69.8 °F 59.0 °F 68% 30.04 in 10.0 mi NW 13.8 mph - N/A   Scattered Clouds
5:10 PM 69.8 °F 59.0 °F 68% 30.03 in 10.0 mi NW 16.1 mph 19.6 mph N/A   Scattered Clouds
5:30 PM 71.6 °F 59.0 °F 64% 30.03 in 10.0 mi NW 13.8 mph - N/A   Scattered Clouds
5:50 PM 69.8 °F 59.0 °F 68% 30.02 in 10.0 mi West 11.5 mph - N/A   Scattered Clouds
6:10 PM 68.0 °F 59.0 °F 73% 30.02 in 10.0 mi WNW 15.0 mph 18.4 mph N/A   Partly Cloudy
6:30 PM 68.0 °F 59.0 °F 73% 30.02 in 10.0 mi WNW 12.7 mph - N/A   Clear
6:50 PM 68.0 °F 59.0 °F 73% 30.02 in 10.0 mi WNW 13.8 mph - N/A   Clear
7:10 PM 66.2 °F 59.0 °F 78% 30.01 in 10.0 mi WNW 11.5 mph - N/A   Clear
7:30 PM 66.2 °F 59.0 °F 78% 30.01 in 10.0 mi WNW 11.5 mph - N/A   Clear
7:50 PM 66.2 °F 59.0 °F 78% 30.01 in 10.0 mi WNW 9.2 mph - N/A   Clear
8:10 PM 62.6 °F 59.0 °F 88% 30.01 in 10.0 mi West 9.2 mph - N/A   Partly Cloudy
8:30 PM 62.6 °F 59.0 °F 88% 30.01 in 10.0 mi West 10.4 mph - N/A   Partly Cloudy
8:50 PM 59.0 °F 59.0 °F 100% 30.01 in 10.0 mi West 9.2 mph - N/A   Mostly Cloudy
9:10 PM 59.0 °F 59.0 °F 100% 30.01 in 5.0 mi West 6.9 mph - N/A   Overcast
9:30 PM 59.0 °F 59.0 °F 100% 30.01 in 0.5 mi WNW 8.1 mph - N/A   Overcast
9:50 PM 59.0 °F 59.0 °F 100% 30.01 in 1.0 mi WNW 8.1 mph - N/A   Overcast
10:10 PM 59.0 °F 59.0 °F 100% 30.02 in 2.5 mi West 8.1 mph - N/A   Overcast
10:30 PM 59.0 °F 59.0 °F 100% 30.02 in 1.0 mi West 6.9 mph - N/A   Overcast
10:50 PM 59.0 °F 59.0 °F 100% 30.02 in 0.2 mi WNW 9.2 mph - N/A   Overcast
11:10 PM 59.0 °F 59.0 °F 100% 30.02 in 0.2 mi WNW 10.4 mph - N/A   Overcast
11:30 PM 59.0 °F 59.0 °F 100% 30.02 in 0.5 mi WNW 8.1 mph - N/A   Overcast
11:50 PM 59.0 °F 59.0 °F 100% 30.02 in 0.2 mi WNW 6.9 mph - N/A   Overcast